When you browse on this site, cookies collect data to enhance your experience and personalize the content and advertising you see.
Visit our Privacy Policy to learn more. By continuing to use the site, you agree to this use of cookies and data.
  • En España
  • Lista de países
  • Para 7 días
  • Temperatura del agua
  • El tiempo en el mapa
  • Informadores
  • user-avatar
    Iniciar sesión

    Tiempo cada hora Truto

    Hoy, 22 Septiembre, Domingo

    Tiempo Temperatura Precipitaciones Viento Presión Humedad
    00:00 +16°C° 0 mm 5 mps 748 mmHg 98%
    01:00 +16°C° 5.3 mm 5 mps 747 mmHg 97%
    02:00 +16°C° 5.3 mm 5 mps 747 mmHg 97%
    03:00 +16°C° 5.3 mm 5 mps 746 mmHg 96%
    04:00 +15°C° 0.5 mm 5 mps 746 mmHg 96%
    05:00 +15°C° 0.5 mm 5 mps 747 mmHg 95%
    06:00 +14°C° 0.5 mm 6 mps 747 mmHg 95%
    07:00 +15°C° 0.2 mm 6 mps 747 mmHg 92%
    08:00 +16°C° 0.2 mm 6 mps 747 mmHg 89%
    09:00 +16°C° 0.2 mm 6 mps 747 mmHg 86%
    10:00 +17°C° 0.6 mm 6 mps 748 mmHg 84%
    11:00 +17°C° 0.6 mm 5 mps 748 mmHg 83%
    12:00 +17°C° 0.6 mm 5 mps 748 mmHg 81%
    13:00 +17°C° 0.7 mm 5 mps 748 mmHg 81%
    14:00 +17°C° 0.7 mm 6 mps 749 mmHg 81%
    15:00 +17°C° 0.7 mm 6 mps 749 mmHg 80%
    16:00 +16°C° 0.1 mm 6 mps 749 mmHg 83%
    17:00 +15°C° 0.1 mm 6 mps 750 mmHg 85%
    18:00 +14°C° 0.1 mm 7 mps 750 mmHg 87%
    19:00 +14°C° 0 mm 7 mps 751 mmHg 88%
    20:00 +14°C° 0 mm 7 mps 752 mmHg 88%
    21:00 +12°C° 0 mm 7 mps 752 mmHg 89%
    22:00 +13°C° 0 mm 6 mps 753 mmHg 90%
    23:00 +13°C° 0 mm 6 mps 753 mmHg 91%

    Mañana, 23 Septiembre, Lunes

    Tiempo Temperatura Precipitaciones Viento Presión Humedad
    00:00 +13°C° 0 mm 5 mps 754 mmHg 92%
    01:00 +13°C° 0 mm 5 mps 754 mmHg 92%
    02:00 +13°C° 0 mm 5 mps 754 mmHg 92%
    03:00 +13°C° 0 mm 5 mps 754 mmHg 92%
    04:00 +13°C° 0.1 mm 5 mps 754 mmHg 92%
    05:00 +13°C° 0.1 mm 6 mps 754 mmHg 92%
    06:00 +13°C° 0.1 mm 6 mps 754 mmHg 92%
    07:00 +14°C° 0.1 mm 7 mps 754 mmHg 90%
    08:00 +15°C° 0.1 mm 8 mps 753 mmHg 89%
    09:00 +15°C° 0.1 mm 9 mps 753 mmHg 87%
    10:00 +14°C° 1.5 mm 10 mps 753 mmHg 90%
    11:00 +14°C° 1.5 mm 11 mps 752 mmHg 92%
    12:00 +13°C° 1.5 mm 12 mps 752 mmHg 95%
    13:00 +14°C° 2.2 mm 11 mps 751 mmHg 95%
    14:00 +16°C° 2.2 mm 11 mps 751 mmHg 95%
    15:00 +17°C° 2.2 mm 10 mps 750 mmHg 95%
    16:00 +17°C° 0.2 mm 9 mps 750 mmHg 95%
    17:00 +17°C° 0.2 mm 8 mps 750 mmHg 95%
    18:00 +17°C° 0.2 mm 7 mps 750 mmHg 95%
    19:00 +16°C° 0.3 mm 7 mps 750 mmHg 96%
    20:00 +16°C° 0.3 mm 7 mps 750 mmHg 96%
    21:00 +16°C° 0.3 mm 7 mps 750 mmHg 96%
    22:00 +16°C° 0.4 mm 7 mps 750 mmHg 96%
    23:00 +16°C° 0.4 mm 7 mps 749 mmHg 96%

    Pasado mañana, 24 Septiembre, Martes

    Tiempo Temperatura Precipitaciones Viento Presión Humedad
    00:00 +16°C° 0.4 mm 7 mps 748 mmHg 95%
    01:00 +16°C° 0.8 mm 7 mps 748 mmHg 95%
    02:00 +16°C° 0.8 mm 7 mps 747 mmHg 94%
    03:00 +16°C° 0.8 mm 6 mps 747 mmHg 94%
    04:00 +15°C° 1.4 mm 7 mps 747 mmHg 93%
    05:00 +15°C° 1.4 mm 7 mps 746 mmHg 92%
    06:00 +15°C° 1.4 mm 8 mps 746 mmHg 91%
    07:00 +15°C° 0.1 mm 8 mps 747 mmHg 89%
    08:00 +15°C° 0.1 mm 8 mps 747 mmHg 87%
    09:00 +16°C° 0.1 mm 9 mps 747 mmHg 85%
    10:00 +16°C° 0.2 mm 9 mps 748 mmHg 85%
    11:00 +16°C° 0.2 mm 10 mps 748 mmHg 85%
    12:00 +16°C° 0.2 mm 11 mps 748 mmHg 86%
    13:00 +16°C° 0.2 mm 11 mps 748 mmHg 85%
    14:00 +14°C° 0.2 mm 11 mps 748 mmHg 84%
    15:00 +14°C° 0.2 mm 10 mps 749 mmHg 83%
    16:00 +14°C° 0.2 mm 11 mps 748 mmHg 85%
    17:00 +14°C° 0.2 mm 11 mps 748 mmHg 86%
    18:00 +13°C° 0.2 mm 11 mps 748 mmHg 87%
    19:00 +13°C° 0.2 mm 12 mps 749 mmHg 87%
    20:00 +13°C° 0.2 mm 12 mps 749 mmHg 87%
    21:00 +13°C° 0.2 mm 12 mps 749 mmHg 88%
    22:00 +13°C° 0.1 mm 12 mps 749 mmHg 87%
    23:00 +13°C° 0.1 mm 13 mps 749 mmHg 85%

    25 Septiembre, Miércoles

    Tiempo Temperatura Precipitaciones Viento Presión Humedad
    00:00 +13°C° 0.1 mm 13 mps 749 mmHg 84%
    01:00 +13°C° 0 mm 12 mps 749 mmHg 84%
    02:00 +13°C° 0 mm 11 mps 749 mmHg 83%
    03:00 +14°C° 0 mm 11 mps 749 mmHg 82%
    04:00 +14°C° 0.4 mm 10 mps 749 mmHg 86%
    05:00 +14°C° 0.4 mm 10 mps 749 mmHg 90%
    06:00 +15°C° 0.4 mm 9 mps 750 mmHg 94%
    07:00 +15°C° 0.5 mm 9 mps 750 mmHg 94%
    08:00 +15°C° 0.5 mm 9 mps 750 mmHg 93%
    09:00 +15°C° 0.5 mm 8 mps 750 mmHg 92%
    10:00 +15°C° 0.2 mm 8 mps 750 mmHg 93%
    11:00 +15°C° 0.2 mm 8 mps 750 mmHg 94%
    12:00 +15°C° 0.2 mm 9 mps 750 mmHg 95%
    13:00 +16°C° 0.4 mm 9 mps 750 mmHg 95%
    14:00 +16°C° 0.4 mm 9 mps 750 mmHg 95%
    15:00 +16°C° 0.4 mm 9 mps 749 mmHg 96%
    16:00 +16°C° 0.8 mm 9 mps 749 mmHg 96%
    17:00 +16°C° 0.8 mm 10 mps 749 mmHg 96%
    18:00 +16°C° 0.8 mm 10 mps 749 mmHg 96%
    19:00 +16°C° 0.2 mm 10 mps 749 mmHg 94%
    20:00 +16°C° 0.2 mm 10 mps 749 mmHg 93%
    21:00 +16°C° 0.2 mm 9 mps 749 mmHg 91%
    22:00 +16°C° 0.2 mm 10 mps 749 mmHg 92%
    23:00 +16°C° 0.2 mm 11 mps 749 mmHg 92%

    26 Septiembre, Jueves

    Tiempo Temperatura Precipitaciones Viento Presión Humedad
    00:00 +14°C° 0.2 mm 11 mps 748 mmHg 93%
    01:00 +14°C° 1.3 mm 10 mps 748 mmHg 94%
    02:00 +16°C° 1.3 mm 10 mps 748 mmHg 94%
    03:00 +16°C° 1.3 mm 9 mps 748 mmHg 95%
    04:00 +15°C° 0.4 mm 8 mps 748 mmHg 93%
    05:00 +15°C° 0.4 mm 7 mps 748 mmHg 91%
    06:00 +14°C° 0.4 mm 6 mps 748 mmHg 90%
    07:00 +14°C° 0.1 mm 7 mps 748 mmHg 87%
    08:00 +15°C° 0.1 mm 7 mps 748 mmHg 85%
    09:00 +15°C° 0.1 mm 8 mps 749 mmHg 82%
    10:00 +15°C° 0.4 mm 9 mps 749 mmHg 83%
    11:00 +15°C° 0.4 mm 9 mps 749 mmHg 84%
    12:00 +13°C° 0.4 mm 10 mps 749 mmHg 86%
    13:00 +14°C° 0.4 mm 10 mps 749 mmHg 84%
    14:00 +14°C° 0.4 mm 10 mps 749 mmHg 82%
    15:00 +15°C° 0.4 mm 9 mps 749 mmHg 80%
    16:00 +15°C° 0.1 mm 9 mps 749 mmHg 81%
    17:00 +13°C° 0.1 mm 9 mps 749 mmHg 82%
    18:00 +12°C° 0.1 mm 9 mps 749 mmHg 83%
    19:00 +12°C° 0.2 mm 9 mps 749 mmHg 84%
    20:00 +12°C° 0.2 mm 9 mps 749 mmHg 84%
    21:00 +12°C° 0.2 mm 9 mps 750 mmHg 85%
    22:00 +12°C° 0.2 mm 9 mps 750 mmHg 85%
    23:00 +12°C° 0.2 mm 9 mps 750 mmHg 85%

    27 Septiembre, Viernes

    Tiempo Temperatura Precipitaciones Viento Presión Humedad
    00:00 +12°C° 0.2 mm 9 mps 750 mmHg 84%
    01:00 +12°C° 0.2 mm 9 mps 750 mmHg 84%
    02:00 +12°C° 0.2 mm 9 mps 749 mmHg 84%
    03:00 +12°C° 0.2 mm 9 mps 749 mmHg 84%
    04:00 +12°C° 0.1 mm 9 mps 749 mmHg 84%
    05:00 +11°C° 0.1 mm 8 mps 749 mmHg 84%
    06:00 +11°C° 0.1 mm 8 mps 749 mmHg 84%
    07:00 +12°C° 0.2 mm 9 mps 750 mmHg 82%
    08:00 +13°C° 0.2 mm 9 mps 750 mmHg 81%
    09:00 +13°C° 0.2 mm 9 mps 750 mmHg 80%
    10:00 +13°C° 0.2 mm 10 mps 750 mmHg 80%
    11:00 +14°C° 0.2 mm 10 mps 750 mmHg 81%
    12:00 +14°C° 0.2 mm 10 mps 751 mmHg 81%
    13:00 +14°C° 0.2 mm 11 mps 750 mmHg 80%
    14:00 +14°C° 0.2 mm 11 mps 750 mmHg 80%
    15:00 +14°C° 0.2 mm 11 mps 750 mmHg 79%
    16:00 +14°C° 0.1 mm 11 mps 750 mmHg 81%
    17:00 +13°C° 0.1 mm 11 mps 750 mmHg 82%
    18:00 +13°C° 0.1 mm 10 mps 750 mmHg 84%
    19:00 +13°C° 0.2 mm 11 mps 750 mmHg 84%
    20:00 +13°C° 0.2 mm 11 mps 750 mmHg 84%
    21:00 +13°C° 0.2 mm 11 mps 751 mmHg 84%
    22:00 +13°C° 0.3 mm 11 mps 750 mmHg 85%
    23:00 +13°C° 0.3 mm 11 mps 750 mmHg 86%
    Mostrar más